Terminal Aerodrome Forecast
Issued by NWS

Home | Current Version | Previous Version | Text Only | Print | Product List | Glossary On
Versions: 1 2 3 4 5 6 7 8 9 10 11 12 13 14 15 16 17 18 19
000
FTUS43 KDLH 221700
TAFHYR
TAF
KHYR 221720Z 2218/2318 30008G17KT P6SM OVC025
     FM221900 30012G22KT P6SM SCT030
     FM222200 35009G16KT P6SM FEW040
     FM222300 36007KT P6SM SKC=

USA.gov is the U.S. government's official web portal to all federal, state and local government web resources and services.